GFSSGP_925_temp_003.txt.gz
Temp
22 23 23 22 23 21 21 22 22 24 25 24 24 25 26 26 26 27 21 21 22 22 21 21 21 21 19 18 18 18 17 18 18 18 18 18 18 19 18 18 17 17 17 17 16 16 16 16 17
22 23 22 19 22 21 22 21 23 24 24 23 23 24 25 27 24 23 22 21 21 22 22 21 20 21 20 18 18 18 17 17 17 18 18 18 18 18 18 18 18 17 17 16 16 16 16 16 16
22 22 21 21 19 21 22 21 23 22 22 23 25 24 25 26 24 23 23 21 22 21 21 21 20 21 19 19 18 17 17 17 17 17 18 18 18 18 18 18 18 17 17 17 16 16 16 15 15
21 19 18 21 21 20 21 22 21 22 24 24 24 25 24 23 23 22 23 21 20 22 21 21 20 20 20 19 19 18 17 17 17 17 18 18 18 18 18 18 18 18 17 17 17 16 16 16 16
19 18 20 19 19 19 19 20 21 22 22 23 24 26 25 23 23 23 22 21 22 21 21 20 20 20 20 20 19 18 18 17 17 17 18 18 18 18 18 18 18 18 17 17 16 16 16 16 16
19 18 18 19 20 19 20 21 21 22 22 23 24 24 25 22 22 22 21 21 22 21 20 20 20 20 20 20 19 19 17 17 17 17 17 17 18 18 18 18 18 18 17 17 16 16 16 16 16
18 18 18 18 19 19 20 21 21 22 22 23 23 25 25 23 23 22 21 21 21 21 20 20 20 20 20 20 19 18 18 17 17 17 17 17 18 18 18 17 18 18 17 17 17 16 16 16 16
17 18 17 17 20 20 21 20 22 22 23 23 23 25 26 23 22 21 21 20 20 20 20 20 20 20 20 19 19 18 18 18 17 17 17 17 17 18 18 18 17 17 17 17 17 17 17 17 17
15 17 17 18 18 20 20 21 21 21 22 22 23 23 23 21 21 20 19 19 18 19 19 19 19 19 19 19 19 18 18 18 17 17 17 17 17 17 17 17 17 17 17 17 16 16 17 17 16
17 17 17 17 18 19 20 20 21 22 22 22 23 23 22 21 19 19 19 19 18 18 18 19 19 18 19 19 18 18 18 18 17 17 17 17 17 17 17 17 17 17 17 16 17 16 16 16 16
16 17 17 18 19 19 19 19 20 20 20 21 23 22 22 21 20 19 20 20 19 19 18 18 18 18 18 18 18 18 18 17 17 17 17 17 17 17 17 17 17 17 17 17 16 16 16 16 16
15 16 17 18 19 18 18 18 19 19 21 21 21 20 20 22 21 20 20 20 19 19 19 18 18 18 18 18 18 18 18 17 17 17 17 17 17 17 17 17 17 17 17 16 16 16 16 15 15
15 15 16 17 16 17 17 18 18 18 19 20 20 19 20 21 21 20 20 20 20 20 20 19 18 18 18 18 18 18 18 17 17 17 17 17 17 16 16 17 17 16 16 16 16 15 15 15 14
14 14 15 15 17 17 17 18 17 19 19 19 18 20 20 20 20 20 21 20 20 22 22 21 20 18 19 18 18 18 18 18 17 17 17 17 17 17 16 16 16 16 15 15 15 14 14 13 13
14 14 15 15 16 17 17 17 17 19 19 19 19 19 20 20 20 19 22 23 23 23 23 22 21 19 19 19 18 18 18 18 17 17 17 17 17 16 16 16 15 15 15 14 13 13 12 12 13
14 14 14 15 15 16 18 17 18 19 18 19 19 18 19 20 21 21 22 21 24 24 23 22 21 19 19 18 18 17 17 18 17 17 17 16 16 16 16 16 15 14 14 13 13 12 12 12 12
12 13 13 14 16 16 16 16 17 18 17 18 18 18 18 18 19 19 21 21 23 24 23 22 19 18 18 18 17 17 17 17 17 17 16 16 16 16 16 15 14 13 13 13 12 11 11 10 11
12 11 13 14 15 15 15 15 16 17 17 18 17 17 17 18 19 19 20 21 22 22 21 20 18 17 17 17 17 17 16 16 16 16 15 16 16 16 15 14 14 13 13 12 11 10 9 8 9
12 12 12 14 14 14 14 15 16 16 15 16 17 17 18 17 18 19 20 21 21 20 20 18 16 16 17 16 15 15 14 14 14 14 15 15 15 15 15 14 13 12 12 11 10 10 9 7 8
12 12 12 14 14 14 14 14 15 16 16 16 17 17 17 17 18 18 17 19 19 19 18 15 16 15 15 15 15 15 14 13 13 13 13 14 14 14 14 13 12 11 11 10 9 9 8 6 6
12 12 13 13 13 13 13 14 16 17 17 17 17 17 18 18 19 19 17 17 18 17 16 15 14 13 14 14 15 13 13 12 12 12 12 13 13 13 13 12 12 10 10 9 8 8 7 6 5
11 11 12 12 11 11 12 12 15 16 16 16 16 17 17 17 17 19 18 16 15 17 16 15 14 14 14 15 15 16 13 12 11 12 12 12 12 12 12 11 10 10 9 8 7 6 6 6 4
11 11 11 11 11 10 12 11 13 14 14 15 16 16 16 17 17 18 17 17 16 15 15 14 14 13 14 15 15 15 12 12 12 11 11 11 11 11 11 10 9 9 8 7 7 6 5 5 4
11 11 11 11 11 10 11 12 14 15 15 15 16 16 16 17 16 16 16 15 13 14 14 14 14 13 14 14 14 14 14 13 11 10 10 10 10 10 9 9 9 8 7 7 6 5 5 4 3
11 9 10 10 10 11 12 11 14 15 16 16 17 17 16 16 15 14 14 13 12 12 13 13 13 13 13 13 13 14 15 15 13 11 10 10 9 9 8 8 8 7 7 6 6 5 4 4 3
10 11 10 10 10 11 11 11 13 14 16 16 16 17 17 16 15 13 13 14 13 12 12 13 13 12 13 13 13 14 16 14 12 12 11 10 10 9 8 7 7 7 6 6 5 5 4 3 3
9 10 11 10 10 10 11 12 13 14 15 15 16 16 16 16 14 14 12 13 12 12 12 13 12 12 12 12 13 13 13 13 12 11 10 10 9 8 7 7 6 6 5 5 5 4 4 3 2
11 10 10 9 10 10 11 11 12 14 16 16 16 15 17 16 14 13 12 12 11 12 12 12 12 12 12 12 13 13 12 12 11 10 10 9 8 7 7 6 6 5 5 4 4 4 3 2 2
10 9 9 9 10 11 11 14 13 15 15 15 14 16 16 15 14 13 12 11 11 10 11 11 11 12 12 12 13 12 12 11 11 10 9 8 7 7 6 5 5 5 4 4 4 3 2 1 1
12 11 11 10 10 10 9 12 16 16 13 13 14 15 14 12 13 11 10 9 10 10 9 10 10 11 12 12 12 11 11 10 10 9 8 7 7 6 5 5 4 4 4 3 3 2 1 1 -0

GFSSGP_925_temp_006.txt.gz
Temp
21 22 23 26 26 27 27 27 28 28 28 29 29 28 30 30 31 30 24 23 22 23 22 21 21 21 19 18 18 18 18 18 18 18 19 19 19 19 18 18 17 17 17 17 16 16 16 16 17
21 23 25 27 26 26 28 28 27 28 28 28 28 28 29 30 29 28 26 22 22 23 23 22 20 20 20 18 18 18 17 18 18 18 19 18 18 19 18 18 18 17 17 16 16 16 16 16 16
21 23 26 26 26 26 27 27 28 27 28 28 29 29 29 30 28 28 24 23 22 23 23 22 21 20 20 19 18 17 17 17 18 18 18 18 18 18 18 18 18 17 17 17 16 16 16 16 16
23 25 25 25 25 26 26 27 27 27 28 28 28 29 30 28 28 26 23 21 23 23 23 21 21 20 20 20 19 18 17 17 17 18 18 18 18 18 18 18 18 18 17 17 16 16 17 16 16
23 25 25 24 25 27 26 27 26 27 27 28 28 29 29 27 25 24 23 23 23 22 22 21 21 20 20 20 20 19 18 17 17 18 18 18 17 18 18 18 18 18 17 17 16 17 17 17 16
24 25 24 24 25 26 25 27 27 27 28 28 28 29 30 26 25 24 23 23 23 22 22 22 21 20 20 19 20 19 18 17 17 18 18 17 17 18 18 18 18 17 17 17 17 17 17 17 16
23 23 24 25 25 26 25 26 26 27 27 27 28 28 30 29 25 23 23 23 22 22 22 22 20 20 20 19 19 19 18 17 18 18 18 17 17 18 18 17 17 17 17 17 17 17 17 17 17
23 23 23 23 24 24 26 25 26 26 27 27 28 28 29 26 24 23 22 22 22 22 22 22 22 21 19 19 19 19 18 18 18 17 17 18 18 18 18 17 17 17 17 17 17 17 17 17 17
21 22 23 23 23 25 25 24 26 26 26 27 27 27 27 23 23 23 23 22 22 21 22 22 22 21 21 20 19 19 18 17 18 17 17 18 18 17 18 17 17 17 17 17 17 17 17 17 17
21 22 23 25 24 24 24 24 25 25 25 26 27 28 25 24 23 24 24 24 23 22 21 20 21 21 21 20 19 19 19 18 18 18 17 18 17 17 17 17 17 17 17 17 17 16 17 17 17
20 21 23 22 22 23 23 23 24 24 24 26 27 27 26 25 25 25 25 26 24 23 22 19 20 20 20 20 19 19 19 19 18 18 17 17 17 17 17 18 18 17 16 16 16 16 16 15 16
19 20 21 21 22 21 21 23 22 23 25 26 26 26 25 26 26 26 25 25 24 23 22 21 19 18 19 20 20 20 19 19 18 18 18 18 18 17 18 18 17 16 16 16 16 16 15 15 15
18 20 20 20 19 20 21 21 22 22 24 24 24 24 25 25 26 26 25 25 24 23 22 22 20 19 18 19 20 19 20 19 19 18 18 18 18 18 17 16 17 16 16 16 15 15 15 15 15
18 18 19 19 20 20 20 21 21 22 23 23 24 24 25 26 26 26 25 25 24 24 23 22 21 19 18 18 19 19 20 19 19 18 18 18 18 17 17 17 16 15 15 14 14 14 14 14 14
17 17 19 20 19 19 20 20 20 23 23 23 23 25 25 25 25 26 25 26 26 25 24 23 22 20 18 18 19 20 19 18 18 18 18 17 17 17 16 16 15 14 14 14 13 13 13 13 13
17 17 18 20 19 20 19 19 22 22 23 22 23 24 24 25 25 25 26 25 25 25 24 23 22 21 18 18 19 19 19 19 19 18 17 16 17 16 16 15 14 14 13 13 13 12 13 13 13
17 18 17 18 19 19 19 20 21 22 22 22 23 23 24 24 25 25 25 25 24 24 24 22 21 21 20 19 18 18 18 17 16 17 17 16 16 16 15 14 13 13 12 12 12 11 11 11 12
18 16 17 18 19 18 18 19 21 21 21 21 22 23 23 23 23 24 24 24 23 23 23 23 21 21 20 18 17 16 16 15 16 16 16 16 15 15 14 13 13 12 12 12 11 11 10 10 10
16 16 17 18 18 17 17 18 19 20 20 20 21 21 22 23 23 22 23 23 23 23 22 21 21 19 17 16 14 14 14 15 15 15 15 15 15 14 14 12 12 11 11 10 10 10 10 10 9
15 15 16 17 17 16 17 18 19 19 19 20 21 21 22 22 23 23 22 23 22 23 21 21 20 17 16 14 15 15 14 13 13 14 14 14 14 13 13 12 11 11 10 10 9 9 10 9 8
15 15 15 15 16 16 16 17 20 21 21 21 20 21 21 22 22 23 24 23 22 22 21 20 19 16 16 14 15 14 12 11 11 12 13 13 13 12 12 12 11 10 10 9 8 8 8 9 8
14 16 15 14 14 15 15 16 20 21 20 20 21 21 21 21 22 22 23 23 23 22 20 19 17 17 15 14 14 13 15 13 11 11 11 11 11 11 11 11 10 10 9 8 8 7 7 8 8
14 14 14 14 14 14 15 12 18 19 19 19 21 22 22 22 22 22 22 22 23 21 19 18 15 16 15 13 14 15 15 15 11 11 10 10 10 9 10 9 9 9 8 7 7 7 7 6 7
14 13 13 13 13 12 15 15 17 19 20 21 20 21 22 22 22 21 21 21 21 21 18 16 15 16 14 13 14 16 14 11 9 9 9 9 9 9 8 8 8 8 7 7 6 6 5 5 5
13 12 13 12 12 14 17 16 16 19 19 20 21 22 22 22 22 22 21 21 20 18 17 16 16 15 14 14 14 14 11 11 11 10 10 10 9 8 8 8 7 7 6 6 6 5 5 5 5
12 13 14 14 15 16 17 14 17 20 20 20 20 21 21 21 22 22 21 20 19 17 17 16 16 15 14 13 13 12 11 11 11 11 11 11 10 9 7 7 7 6 6 5 5 5 5 4 4
12 10 14 12 13 11 15 16 18 19 18 19 20 20 20 20 20 21 21 19 19 17 17 17 17 16 14 14 12 10 11 12 12 11 11 10 9 7 7 6 6 5 5 5 5 5 4 4 4
12 13 11 11 11 13 15 15 17 18 19 20 19 19 19 20 19 20 20 19 18 17 16 16 16 16 14 11 10 11 11 11 10 10 9 8 8 7 6 6 5 5 5 4 4 4 4 4 4
11 10 10 12 12 13 14 17 19 18 18 18 18 18 18 18 18 18 19 18 17 16 16 16 15 14 11 10 10 9 9 9 10 9 8 8 7 6 6 5 5 5 5 4 4 4 3 3 3
15 13 13 11 11 11 13 15 19 18 19 17 18 18 18 17 17 17 18 17 16 16 16 15 13 12 10 10 9 9 9 10 9 8 7 7 6 6 5 5 5 4 4 3 4 4 3 3 2

GFSSGP_925_temp_012.txt.gz
Temp
22 24 26 26 23 24 24 26 31 30 30 30 30 30 28 28 29 25 26 26 24 21 20 20 20 20 19 18 18 18 18 18 18 18 18 18 18 18 18 18 17 17 17 16 16 16 16 16 17
22 23 26 23 23 23 25 28 28 30 28 29 29 29 29 30 28 26 26 26 24 22 21 20 21 20 19 18 18 18 18 18 18 18 18 18 18 18 18 18 17 17 16 16 16 16 16 16 17
22 24 23 23 23 23 24 29 29 29 29 29 30 30 30 29 29 27 26 26 25 23 21 21 21 21 19 18 18 18 18 18 18 18 18 18 18 18 18 17 17 17 17 17 17 17 17 17 17
23 24 24 22 23 25 26 28 29 29 30 30 30 28 30 30 30 27 26 26 26 24 23 21 21 21 20 19 18 18 18 18 18 17 18 18 18 18 18 17 17 17 17 16 16 16 16 17 17
24 23 22 22 23 25 27 29 29 29 28 30 30 28 29 28 28 27 26 26 26 25 23 22 21 21 21 20 19 18 18 18 17 18 17 17 18 18 18 18 18 17 17 16 17 17 17 17 17
21 23 21 22 24 26 27 28 28 28 27 28 29 28 28 28 28 27 26 26 26 24 22 22 21 21 21 20 20 19 19 18 17 18 17 17 18 19 18 18 18 17 17 17 17 17 17 17 17
21 22 22 23 24 26 27 29 28 28 27 27 29 28 28 26 27 27 26 26 26 24 22 21 21 21 21 20 20 19 19 18 17 17 17 18 18 18 17 17 17 17 17 17 17 17 17 17 17
22 22 22 23 23 24 27 28 28 28 26 28 30 27 27 25 27 27 27 26 26 25 23 21 21 20 20 20 20 20 19 18 18 17 18 18 18 18 18 17 17 17 17 17 17 17 17 18 18
23 20 21 22 24 25 27 27 29 28 26 27 28 28 26 27 27 26 26 26 26 25 23 22 21 20 20 19 19 19 19 18 18 18 18 18 18 18 18 17 17 18 17 17 17 17 17 18 18
20 19 21 24 25 25 25 26 27 26 25 26 25 28 27 26 26 26 25 25 25 25 25 23 22 21 21 19 18 19 19 19 18 18 18 19 18 18 18 18 18 17 17 17 17 17 17 17 17
20 19 22 24 25 25 24 23 26 25 24 25 25 27 26 27 26 26 26 26 26 25 25 25 25 23 22 20 19 18 18 18 18 18 19 19 19 19 18 18 17 17 17 17 17 17 17 17 17
20 22 22 23 24 24 23 23 23 23 24 25 25 25 27 26 25 25 27 27 27 26 25 25 24 23 22 21 20 20 20 19 19 19 19 19 18 19 18 18 17 17 17 17 17 17 17 17 16
20 21 23 23 23 22 22 22 21 22 23 24 25 25 24 25 25 27 28 28 28 26 25 24 24 23 22 22 21 20 20 20 20 20 19 19 19 19 19 19 18 18 17 17 17 17 16 16 16
22 21 21 22 22 22 21 21 21 22 23 23 23 23 23 24 24 26 27 27 28 27 26 24 23 23 22 22 21 20 21 20 20 20 20 19 19 18 18 18 17 17 17 16 16 16 15 15 15
20 18 19 20 21 21 21 20 20 21 22 22 22 23 23 23 25 25 26 27 28 27 26 25 23 23 22 21 21 21 20 21 21 20 20 20 19 19 18 17 16 16 16 16 16 15 15 14 14
18 18 17 21 21 21 20 18 21 22 22 22 22 22 23 23 24 25 26 27 27 27 27 26 24 22 21 20 20 21 21 21 21 20 20 20 19 19 18 16 16 16 16 15 15 14 14 13 13
17 17 18 20 21 22 20 19 21 22 23 22 21 22 23 23 23 26 26 27 27 27 27 26 25 23 22 20 20 20 21 21 21 20 20 19 18 18 17 16 16 15 15 14 14 13 13 12 12
18 17 19 19 21 20 19 19 20 21 21 21 21 21 21 22 23 26 26 26 27 27 27 27 26 24 22 19 19 20 20 20 20 19 19 18 18 17 16 15 15 15 14 13 13 12 12 11 11
18 18 17 19 21 19 18 19 19 20 20 20 20 20 21 21 22 25 26 26 25 26 27 26 26 25 21 19 19 19 19 19 19 18 18 18 17 16 15 15 15 14 14 13 12 12 12 11 12
18 17 16 18 20 19 17 17 18 19 20 20 20 20 21 21 21 22 24 25 25 25 26 26 25 24 23 20 19 18 18 18 17 16 16 16 15 15 15 15 14 14 13 12 12 12 11 10 10
16 16 16 17 18 17 17 16 17 21 20 20 20 21 21 21 20 20 21 24 24 24 24 25 25 24 23 21 18 18 17 16 15 15 14 14 15 15 15 14 13 13 13 12 11 11 11 10 9
15 17 17 17 15 14 16 13 16 19 20 21 20 19 19 20 20 21 21 21 23 23 24 24 24 24 23 20 17 17 15 14 13 13 12 13 14 14 14 13 13 13 12 12 11 10 10 10 9
16 16 15 15 14 12 14 12 15 18 18 20 20 19 19 19 19 20 19 21 23 23 23 24 24 24 20 19 16 15 14 14 12 11 11 13 13 13 13 13 12 12 12 11 10 10 9 9 8
15 15 14 14 13 9 12 14 16 18 19 20 21 19 19 20 20 20 22 23 22 23 23 22 24 22 19 18 16 15 14 13 11 10 11 11 12 12 12 11 11 11 11 10 10 9 8 8 7
15 13 10 10 10 10 17 15 16 18 19 20 19 18 19 19 18 19 19 18 20 22 22 22 22 21 18 17 16 16 14 13 11 10 10 10 11 11 11 11 10 10 10 9 9 8 8 7 7
13 13 11 13 11 13 16 13 16 20 20 20 20 19 18 18 18 20 19 17 19 20 22 21 21 19 17 16 16 16 15 12 11 10 10 10 10 10 10 10 10 10 9 9 8 8 7 7 6
13 11 14 12 12 10 13 16 18 19 19 19 19 19 18 18 18 20 19 18 19 19 20 21 20 19 16 15 16 16 14 11 10 10 10 10 10 10 10 9 9 9 8 8 7 7 7 6 6
14 15 11 10 8 11 14 15 16 17 17 18 17 18 18 18 18 17 17 17 18 19 20 20 19 18 17 15 15 13 12 11 11 10 10 10 10 10 9 9 8 8 8 7 7 7 6 6 5
12 12 11 12 11 10 12 14 18 16 18 18 17 18 17 18 17 16 16 17 17 17 20 20 19 18 15 15 13 11 11 11 10 11 11 10 10 9 9 8 8 8 7 7 6 6 6 5 5
14 12 12 11 10 11 11 13 17 17 17 17 16 17 18 17 17 16 15 15 16 17 19 19 19 15 12 12 11 11 11 11 11 10 10 10 9 8 8 8 7 7 7 6 6 6 5 5 4

GFSSGP_925_temp_018.txt.gz
Temp
22 23 23 22 19 17 19 21 23 24 26 26 26 27 27 25 26 25 23 21 22 20 20 19 19 19 19 18 19 19 18 18 18 18 18 18 18 17 17 17 17 17 17 17 17 17 17 17 17
22 23 22 17 18 18 19 21 24 22 25 25 27 26 26 25 24 20 21 21 22 21 20 19 19 19 19 18 18 18 18 18 18 18 18 18 18 17 17 17 17 17 16 16 16 16 16 17 17
21 21 19 18 17 18 19 22 23 26 24 27 27 27 26 26 23 22 23 21 21 20 20 19 19 19 19 19 18 18 18 18 18 18 18 18 18 17 17 17 16 16 16 16 16 16 17 17 17
20 19 16 18 18 19 20 22 23 24 26 27 27 26 25 25 24 25 23 22 21 20 20 19 19 19 19 19 18 18 18 18 18 18 18 18 17 17 17 16 16 16 16 16 17 17 17 17 17
19 15 17 17 18 19 20 22 23 23 25 27 26 26 25 25 25 24 22 22 21 20 20 20 20 20 19 19 18 17 17 17 17 17 18 18 18 17 17 17 16 16 16 17 16 17 17 17 17
17 15 15 17 18 20 20 21 24 24 24 26 26 25 24 23 24 21 22 21 22 21 20 20 20 20 19 19 18 18 18 17 17 17 17 18 18 17 16 17 17 16 16 17 16 17 17 17 17
16 15 16 17 18 19 21 21 23 22 23 25 25 25 23 23 24 23 22 21 22 21 20 20 20 20 20 19 18 18 17 17 17 18 17 17 18 18 17 17 16 16 17 17 17 17 17 17 18
16 15 17 17 19 19 21 24 24 22 22 25 24 22 22 23 25 24 22 21 21 20 21 20 20 20 19 19 19 18 17 17 17 17 18 18 18 18 17 17 17 17 16 17 17 17 17 17 17
17 15 15 18 18 19 22 22 22 24 25 25 25 23 23 25 25 23 21 20 20 19 20 20 20 20 20 19 19 19 18 18 18 18 18 18 18 17 17 17 17 17 17 17 17 17 17 17 17
16 14 16 18 20 20 21 22 22 22 23 25 24 23 24 24 23 22 20 19 19 19 18 20 20 20 19 19 19 18 18 18 18 18 18 18 18 17 17 17 17 17 17 17 17 17 17 17 17
16 15 18 19 20 20 20 20 21 22 22 23 23 23 22 22 21 22 21 21 20 21 19 19 20 20 19 19 19 18 18 18 18 18 18 18 18 17 17 17 17 17 17 17 17 17 17 17 17
17 17 19 19 20 19 20 21 20 20 21 21 20 22 23 22 22 21 22 21 21 21 21 20 20 19 19 19 19 19 18 18 18 18 18 18 17 17 17 17 17 17 17 17 17 17 17 16 16
17 17 19 19 18 18 19 19 19 19 19 19 19 20 21 20 21 23 23 23 22 22 21 20 20 20 19 19 19 19 19 18 19 18 18 18 18 17 17 17 17 16 16 17 17 17 16 16 15
18 18 18 18 19 18 19 18 18 19 19 19 19 19 18 19 21 22 23 23 23 23 22 22 21 21 20 20 19 19 19 19 19 18 18 18 18 18 17 17 16 16 17 17 17 16 16 15 15
18 18 17 17 18 18 19 18 17 18 18 18 17 17 18 17 21 21 23 24 24 24 24 22 23 23 20 20 20 20 19 19 19 19 18 18 18 18 18 17 16 17 17 17 16 16 15 15 15
17 16 16 17 18 18 18 17 18 18 17 17 17 17 17 19 18 22 24 24 25 24 24 22 21 22 22 20 20 20 20 20 20 19 19 18 18 18 18 17 17 17 17 16 16 16 15 15 14
14 14 14 15 17 18 16 17 18 19 17 16 16 15 16 18 18 20 23 24 25 25 24 24 21 22 23 22 21 20 20 21 20 19 19 18 18 18 18 17 17 17 17 16 16 15 14 14 13
14 13 14 15 17 17 16 16 16 17 17 16 16 15 15 16 18 20 21 23 24 25 25 24 24 21 22 23 22 19 19 21 20 19 19 20 19 18 18 17 17 17 16 16 15 15 14 13 13
16 15 14 15 16 16 15 15 15 16 15 15 17 16 16 16 18 20 22 22 22 23 24 22 24 21 20 20 18 18 19 20 20 19 19 20 19 18 17 17 17 16 16 16 15 14 13 12 12
15 14 13 14 16 16 14 14 16 16 17 17 17 18 18 16 16 16 19 21 22 23 24 23 22 23 20 20 21 19 19 20 20 19 20 20 19 18 18 17 17 16 15 15 14 14 13 12 12
13 14 14 14 14 14 13 15 15 15 16 16 18 18 17 17 17 17 17 20 21 21 23 23 22 21 22 20 19 21 18 17 17 18 19 19 18 18 18 17 17 16 15 15 14 14 14 12 10
14 14 14 14 13 12 12 11 11 14 15 16 16 14 14 14 15 16 15 17 20 22 23 23 23 21 20 19 18 21 19 16 17 19 19 18 18 17 17 17 16 16 15 14 14 14 13 13 11
14 14 14 13 11 10 11 10 10 12 14 15 15 16 16 14 13 14 14 17 19 21 22 22 22 21 20 19 18 19 18 18 18 17 16 16 16 17 16 16 15 15 14 14 13 13 12 12 11
14 13 11 10 9 7 10 11 11 13 15 18 18 16 16 16 17 14 16 18 18 19 20 21 20 20 19 19 17 18 17 17 15 14 13 13 14 15 15 14 14 14 14 13 13 12 11 11 11
12 10 7 7 5 9 11 10 10 13 14 16 15 14 14 14 15 15 15 15 18 18 19 19 19 20 19 18 17 17 18 18 17 15 13 12 12 12 14 14 13 13 12 12 12 11 10 10 9
11 11 8 11 9 9 11 11 13 14 15 15 15 14 14 14 12 13 13 14 15 17 17 18 18 18 18 17 17 16 17 16 15 14 13 12 11 11 12 13 12 12 11 11 11 10 9 9 8
11 8 11 9 8 5 9 10 13 14 16 15 14 14 14 13 14 13 14 15 16 17 18 18 18 19 18 16 16 15 15 13 14 13 12 11 11 11 11 12 12 11 11 10 10 9 8 8 7
12 11 8 4 5 9 10 10 13 15 16 14 14 13 13 14 13 13 13 14 16 17 18 18 18 17 17 17 15 14 14 14 13 12 11 11 11 10 10 11 11 9 9 9 9 8 7 7 6
11 8 9 8 7 7 9 11 11 14 15 14 13 13 13 13 13 12 11 13 14 15 16 17 17 17 16 16 14 13 12 12 12 11 10 10 10 10 9 10 9 9 8 8 8 8 7 6 6
11 10 9 6 7 6 7 10 13 13 14 14 14 15 14 14 14 12 11 12 12 13 14 15 16 16 17 15 14 12 11 11 10 10 10 10 9 9 9 9 9 8 7 6 8 7 6 6 5